AF598 LFPG-GQNO

Flight info

Callsign AF598
Flight time N/A
Altitude 35000
Route LGL UT176 TERPO UN872 ERIGA DCT FUJTI/N0466F370 DCT BAKUP DCT BATAX DCT BABEX DCT ABRAT DCT EXONA DCT TAKAV DCT ROLRO DCT SOLNA L660 LAY Y601 KEMUL/N0463F380 Y601 GUPEL GUPEL1V
Aircraft A339/H-SADE1E2E3GHIJ3J5M1P2RWXY/LB2D1

Departure

Time N/A
Airport Charles de Gaulle International Airport (LFPG)

Arrival

Time 2026-05-07 11:25
Airport Nouakchott–Oumtounsy International Airport (GQNO)
Time Latitude Longitude Altitude Speed Heading
2026-05-07 07:10 46.55142 -2.63273 34989 ft 449 kts 212°
2026-05-07 07:11 46.49803 -2.67901 34990 ft 449 kts 211°
2026-05-07 07:11 46.44467 -2.72516 34991 ft 449 kts 211°
2026-05-07 07:12 46.39110 -2.77139 34991 ft 448 kts 211°
2026-05-07 07:12 46.33774 -2.81732 34991 ft 449 kts 211°
2026-05-07 07:13 46.28407 -2.86340 34995 ft 449 kts 211°
2026-05-07 07:13 46.23077 -2.90947 34989 ft 449 kts 211°
2026-05-07 07:14 46.17727 -2.95616 34992 ft 448 kts 211°
2026-05-07 07:14 46.12407 -3.00245 34992 ft 448 kts 211°
2026-05-07 07:15 46.06192 -3.05635 34991 ft 448 kts 211°
2026-05-07 07:15 46.01769 -3.09462 34989 ft 447 kts 211°
2026-05-07 07:16 45.96473 -3.14033 34991 ft 446 kts 211°
2026-05-07 07:16 45.90274 -3.19367 34986 ft 446 kts 211°
2026-05-07 07:17 45.85853 -3.23165 34986 ft 447 kts 211°
2026-05-07 07:17 45.80529 -3.27730 34984 ft 447 kts 211°
2026-05-07 07:18 45.75193 -3.32294 34982 ft 446 kts 211°
2026-05-07 07:18 45.68983 -3.37593 34979 ft 446 kts 211°
2026-05-07 07:19 45.64579 -3.41341 34980 ft 446 kts 211°
2026-05-07 07:19 45.59273 -3.45849 34981 ft 445 kts 211°
2026-05-07 07:20 45.53960 -3.50353 34979 ft 445 kts 211°
2026-05-07 07:20 45.48642 -3.54850 34984 ft 444 kts 211°
2026-05-07 07:21 45.43349 -3.59319 34983 ft 445 kts 211°
2026-05-07 07:21 45.38023 -3.63804 34975 ft 444 kts 211°
2026-05-07 07:22 45.32725 -3.68254 34975 ft 445 kts 210°
2026-05-07 07:22 45.26505 -3.73468 34981 ft 445 kts 210°
2026-05-07 07:23 45.22066 -3.77180 34978 ft 444 kts 210°
2026-05-07 07:23 45.16747 -3.81618 34972 ft 443 kts 211°
2026-05-07 07:24 45.11458 -3.86024 34973 ft 443 kts 210°
2026-05-07 07:24 45.06139 -3.90446 34970 ft 444 kts 210°
2026-05-07 07:25 44.98184 -3.97040 34966 ft 443 kts 210°
2026-05-07 07:26 44.92857 -4.01441 34977 ft 443 kts 210°
2026-05-07 07:26 44.87558 -4.05811 34972 ft 443 kts 210°
2026-05-07 07:27 44.82222 -4.10201 34968 ft 442 kts 210°
2026-05-07 07:27 44.76960 -4.14524 34974 ft 442 kts 210°
2026-05-07 07:28 44.70787 -4.19581 34962 ft 441 kts 210°
2026-05-07 07:28 44.66374 -4.23190 34961 ft 441 kts 210°
2026-05-07 07:29 44.61073 -4.27515 34965 ft 441 kts 210°
2026-05-07 07:29 44.55772 -4.31831 34962 ft 441 kts 210°
2026-05-07 07:30 44.50481 -4.36128 34951 ft 441 kts 210°
2026-05-07 07:30 44.45177 -4.40428 34954 ft 441 kts 210°
2026-05-07 07:31 44.39907 -4.44712 34943 ft 440 kts 211°
2026-05-07 07:31 44.34675 -4.49150 34943 ft 440 kts 211°
2026-05-07 07:32 44.29480 -4.53567 34950 ft 440 kts 211°
2026-05-07 07:32 44.24258 -4.57986 34984 ft 440 kts 211°
2026-05-07 07:33 44.19046 -4.62382 34920 ft 439 kts 211°
2026-05-07 07:33 44.12924 -4.67529 34959 ft 440 kts 211°
2026-05-07 07:34 44.08571 -4.71182 34947 ft 440 kts 211°
2026-05-07 07:34 44.03371 -4.75537 34948 ft 440 kts 211°
2026-05-07 07:35 43.98119 -4.79924 34934 ft 438 kts 211°
2026-05-07 07:35 43.92921 -4.84261 34934 ft 439 kts 211°
2026-05-07 07:35 43.90288 -4.86454 35069 ft 441 kts 210°
2026-05-07 07:36 43.86806 -4.89350 35424 ft 440 kts 211°
2026-05-07 07:36 43.85051 -4.90806 35584 ft 439 kts 211°
2026-05-07 07:36 43.82429 -4.92982 35803 ft 439 kts 211°
2026-05-07 07:36 43.79802 -4.95160 36006 ft 440 kts 211°
2026-05-07 07:37 43.77187 -4.97326 36199 ft 440 kts 211°
2026-05-07 07:37 43.74564 -4.99496 36388 ft 440 kts 211°
2026-05-07 07:37 43.71963 -5.01645 36579 ft 440 kts 211°
2026-05-07 07:37 43.69326 -5.03821 36751 ft 441 kts 211°
2026-05-07 07:38 43.66685 -5.06000 36883 ft 443 kts 211°
2026-05-07 07:38 43.61428 -5.10332 36926 ft 444 kts 211°
2026-05-07 07:39 43.56133 -5.14686 36927 ft 444 kts 211°
2026-05-07 07:39 43.51041 -5.18863 36925 ft 444 kts 211°
2026-05-07 07:40 43.45741 -5.23201 36913 ft 444 kts 211°
2026-05-07 07:40 43.40433 -5.27539 36920 ft 444 kts 211°
2026-05-07 07:41 43.35118 -5.31872 36916 ft 444 kts 211°
2026-05-07 07:41 43.29845 -5.36161 36926 ft 445 kts 211°
2026-05-07 07:42 43.24513 -5.40491 36928 ft 445 kts 211°
2026-05-07 07:42 43.19199 -5.44797 36930 ft 446 kts 211°
2026-05-07 07:43 43.13865 -5.49108 36929 ft 446 kts 211°
2026-05-07 07:43 43.08533 -5.53412 36932 ft 445 kts 211°
2026-05-07 07:44 43.03210 -5.57698 36920 ft 446 kts 211°
2026-05-07 07:44 42.97866 -5.61993 36910 ft 446 kts 211°
2026-05-07 07:45 42.92514 -5.66284 36914 ft 446 kts 211°
2026-05-07 07:45 42.87160 -5.70571 36929 ft 447 kts 211°
2026-05-07 07:46 42.81802 -5.74850 36932 ft 447 kts 211°
2026-05-07 07:46 42.76450 -5.79118 36934 ft 447 kts 211°
2026-05-07 07:47 42.71081 -5.83389 36936 ft 448 kts 211°
2026-05-07 07:47 42.65684 -5.87674 36934 ft 448 kts 211°
2026-05-07 07:48 42.60322 -5.91921 36935 ft 449 kts 211°
2026-05-07 07:48 42.54937 -5.96179 36935 ft 449 kts 211°
2026-05-07 07:49 42.49567 -6.00416 36932 ft 449 kts 211°
2026-05-07 07:49 42.44181 -6.04659 36928 ft 449 kts 211°
2026-05-07 07:50 42.38757 -6.08922 36924 ft 449 kts 211°
2026-05-07 07:50 42.33372 -6.13145 36920 ft 450 kts 211°
2026-05-07 07:51 42.27990 -6.17359 36915 ft 451 kts 211°
2026-05-07 07:51 42.22566 -6.21595 36913 ft 450 kts 211°
2026-05-07 07:52 42.17132 -6.25831 36910 ft 451 kts 211°
2026-05-07 07:52 42.11731 -6.30034 36911 ft 450 kts 211°
2026-05-07 07:53 42.06323 -6.34233 36915 ft 450 kts 211°
2026-05-07 07:53 42.00890 -6.38445 36922 ft 450 kts 211°
2026-05-07 07:54 41.95495 -6.42617 36918 ft 451 kts 212°
2026-05-07 07:54 41.90050 -6.46822 36919 ft 452 kts 212°
2026-05-07 07:55 41.84585 -6.51032 36919 ft 453 kts 212°
2026-05-07 07:55 41.79116 -6.55236 36918 ft 454 kts 212°
2026-05-07 07:56 41.73666 -6.59416 36916 ft 454 kts 212°
2026-05-07 07:56 41.68183 -6.63567 36914 ft 455 kts 211°
2026-05-07 07:57 41.62590 -6.67508 36913 ft 455 kts 209°
2026-05-07 07:57 41.56961 -6.71448 36908 ft 456 kts 210°
2026-05-07 07:58 41.51392 -6.75357 36906 ft 456 kts 210°
2026-05-07 07:58 41.45786 -6.79291 36901 ft 457 kts 210°
2026-05-07 07:59 41.40154 -6.83240 36901 ft 459 kts 210°
2026-05-07 07:59 41.34504 -6.87190 36897 ft 459 kts 210°
2026-05-07 08:00 41.28870 -6.91125 36901 ft 460 kts 210°
2026-05-07 08:00 41.23220 -6.95060 36898 ft 460 kts 210°
2026-05-07 08:01 41.17548 -6.99007 36903 ft 460 kts 210°
2026-05-07 08:01 41.11888 -7.02935 36898 ft 461 kts 210°
2026-05-07 08:02 41.06198 -7.06841 36899 ft 462 kts 208°
2026-05-07 08:02 41.00279 -7.10175 36896 ft 464 kts 202°
2026-05-07 08:03 40.94205 -7.13061 36899 ft 464 kts 202°
2026-05-07 08:03 40.88128 -7.15949 36896 ft 465 kts 202°
2026-05-07 08:04 40.82024 -7.18843 36896 ft 467 kts 203°
2026-05-07 08:04 40.75904 -7.21739 36891 ft 468 kts 203°
2026-05-07 08:05 40.69805 -7.24621 36890 ft 467 kts 203°
2026-05-07 08:05 40.63675 -7.27512 36891 ft 468 kts 203°
2026-05-07 08:06 40.57551 -7.30391 36894 ft 468 kts 203°
2026-05-07 08:06 40.51454 -7.33257 36892 ft 469 kts 203°
2026-05-07 08:07 40.45287 -7.36147 36760 ft 470 kts 203°
2026-05-07 08:07 40.42216 -7.37585 36938 ft 470 kts 203°
2026-05-07 08:07 40.39159 -7.39013 36911 ft 470 kts 203°
2026-05-07 08:08 40.33004 -7.41888 36685 ft 470 kts 204°
2026-05-07 08:08 40.29924 -7.43323 36792 ft 471 kts 204°
2026-05-07 08:08 40.26856 -7.44753 36971 ft 472 kts 204°
2026-05-07 08:08 40.23766 -7.46189 36793 ft 471 kts 204°
2026-05-07 08:09 40.20670 -7.47629 36845 ft 473 kts 204°
2026-05-07 08:09 40.14498 -7.50494 36877 ft 473 kts 204°
2026-05-07 08:10 40.08301 -7.53364 36882 ft 474 kts 204°
2026-05-07 08:10 40.02090 -7.56235 36892 ft 474 kts 204°
2026-05-07 08:11 39.95912 -7.59087 36894 ft 473 kts 204°
2026-05-07 08:11 39.89671 -7.61958 36896 ft 474 kts 204°
2026-05-07 08:12 39.83465 -7.64810 36904 ft 474 kts 204°
2026-05-07 08:12 39.77175 -7.67407 36903 ft 477 kts 201°
2026-05-07 08:13 39.70831 -7.69947 36890 ft 476 kts 202°
2026-05-07 08:13 39.64490 -7.72479 36891 ft 478 kts 202°
2026-05-07 08:14 39.58154 -7.75003 36885 ft 477 kts 201°
2026-05-07 08:14 39.51819 -7.77518 36894 ft 478 kts 202°
2026-05-07 08:15 39.45485 -7.80030 36883 ft 477 kts 202°
2026-05-07 08:15 39.39125 -7.82549 36891 ft 477 kts 202°
2026-05-07 08:16 39.32811 -7.85043 36893 ft 477 kts 202°
2026-05-07 08:16 39.26477 -7.87541 36883 ft 477 kts 202°
2026-05-07 08:17 39.20112 -7.90044 36893 ft 479 kts 202°
2026-05-07 08:17 39.13747 -7.92543 36882 ft 478 kts 202°
2026-05-07 08:18 39.07406 -7.95032 36894 ft 479 kts 202°
2026-05-07 08:18 39.01042 -7.97520 36900 ft 478 kts 203°
2026-05-07 08:19 38.94706 -7.99996 36901 ft 477 kts 203°
2026-05-07 08:19 38.88399 -8.02636 36908 ft 474 kts 207°
2026-05-07 08:20 38.82194 -8.05624 36904 ft 475 kts 207°
2026-05-07 08:20 38.76029 -8.08586 36900 ft 475 kts 207°
2026-05-07 08:21 38.69859 -8.11538 36919 ft 474 kts 207°
2026-05-07 08:21 38.63723 -8.14470 36913 ft 472 kts 207°
2026-05-07 08:22 38.57539 -8.17422 36921 ft 473 kts 207°
2026-05-07 08:22 38.51403 -8.20342 36909 ft 471 kts 207°
2026-05-07 08:23 38.45262 -8.23262 36939 ft 472 kts 207°
2026-05-07 08:23 38.39103 -8.26184 36911 ft 472 kts 207°
2026-05-07 08:24 38.32967 -8.29091 36921 ft 470 kts 207°
2026-05-07 08:24 38.26854 -8.31979 36916 ft 470 kts 207°
2026-05-07 08:25 38.20725 -8.34872 36933 ft 471 kts 207°
2026-05-07 08:25 38.14593 -8.37760 36926 ft 469 kts 207°
2026-05-07 08:26 38.05443 -8.42060 36914 ft 468 kts 207°
2026-05-07 08:26 37.99327 -8.44927 36925 ft 467 kts 207°
2026-05-07 08:27 37.93276 -8.47762 36932 ft 468 kts 207°
2026-05-07 08:27 37.87143 -8.50627 36923 ft 467 kts 207°
2026-05-07 08:28 37.81042 -8.53472 36923 ft 467 kts 207°
2026-05-07 08:28 37.74945 -8.56310 36930 ft 466 kts 207°
2026-05-07 08:29 37.68885 -8.59129 36922 ft 467 kts 207°
2026-05-07 08:29 37.62806 -8.61950 36922 ft 466 kts 207°
2026-05-07 08:30 37.56707 -8.64774 36923 ft 468 kts 207°
2026-05-07 08:30 37.50585 -8.67607 36930 ft 468 kts 207°
2026-05-07 08:31 37.44498 -8.70415 36921 ft 469 kts 207°
2026-05-07 08:31 37.38366 -8.73239 36920 ft 468 kts 207°
2026-05-07 08:32 37.32280 -8.76040 36924 ft 469 kts 207°
2026-05-07 08:32 37.26171 -8.78842 36923 ft 467 kts 207°
2026-05-07 08:33 37.20054 -8.81645 36927 ft 466 kts 207°
2026-05-07 08:33 37.13990 -8.84424 36927 ft 467 kts 207°
2026-05-07 08:34 37.07867 -8.87219 36923 ft 468 kts 206°
2026-05-07 08:34 37.01749 -8.90009 36929 ft 467 kts 207°
2026-05-07 08:35 36.95658 -8.92782 36924 ft 467 kts 207°
2026-05-07 08:35 36.89571 -8.95547 36924 ft 468 kts 207°
2026-05-07 08:36 36.83445 -8.98328 36931 ft 468 kts 207°
2026-05-07 08:36 36.77340 -9.01094 36932 ft 468 kts 206°
2026-05-07 08:37 36.71214 -9.03863 36933 ft 469 kts 206°
2026-05-07 08:37 36.65103 -9.06620 36935 ft 467 kts 206°
2026-05-07 08:38 36.58981 -9.09378 36933 ft 467 kts 207°
2026-05-07 08:38 36.52881 -9.12120 36931 ft 467 kts 207°
2026-05-07 08:39 36.46788 -9.14857 36931 ft 468 kts 207°
2026-05-07 08:39 36.40693 -9.17592 36935 ft 467 kts 206°
2026-05-07 08:40 36.37645 -9.18957 37231 ft 467 kts 207°
2026-05-07 08:40 36.34579 -9.20327 36864 ft 466 kts 207°
2026-05-07 08:40 36.31513 -9.21698 37124 ft 467 kts 207°
2026-05-07 08:40 36.28499 -9.23042 37006 ft 466 kts 207°
2026-05-07 08:41 36.22411 -9.25759 36959 ft 466 kts 207°
2026-05-07 08:41 36.16295 -9.28482 36952 ft 466 kts 207°
2026-05-07 08:42 36.10215 -9.31184 36954 ft 466 kts 207°
2026-05-07 08:42 36.04111 -9.33894 36954 ft 464 kts 207°
2026-05-07 08:43 35.98035 -9.36586 36955 ft 465 kts 207°
2026-05-07 08:43 35.91877 -9.39068 36951 ft 467 kts 205°
2026-05-07 08:44 35.85697 -9.41484 36957 ft 466 kts 205°
2026-05-07 08:44 35.79539 -9.43890 36959 ft 467 kts 205°
2026-05-07 08:45 35.73309 -9.46315 36954 ft 467 kts 205°
2026-05-07 08:45 35.67135 -9.48717 36955 ft 468 kts 205°
2026-05-07 08:46 35.60896 -9.51140 36962 ft 468 kts 205°
2026-05-07 08:46 35.54728 -9.53530 36960 ft 467 kts 205°
2026-05-07 08:47 35.48508 -9.55935 36962 ft 467 kts 205°
2026-05-07 08:47 35.42348 -9.58315 36962 ft 467 kts 205°
2026-05-07 08:48 35.36133 -9.60715 36961 ft 468 kts 205°
2026-05-07 08:48 35.29955 -9.63093 36965 ft 467 kts 205°
2026-05-07 08:49 35.23753 -9.65477 36969 ft 467 kts 204°
2026-05-07 08:49 35.17573 -9.67850 36966 ft 468 kts 204°
2026-05-07 08:50 35.11348 -9.70235 36966 ft 466 kts 204°
2026-05-07 08:50 35.05149 -9.72609 36962 ft 467 kts 204°
2026-05-07 08:51 34.98956 -9.74974 36964 ft 466 kts 204°
2026-05-07 08:51 34.92777 -9.77330 36966 ft 466 kts 204°
2026-05-07 08:52 34.86615 -9.79677 36965 ft 466 kts 204°
2026-05-07 08:52 34.80422 -9.82033 36968 ft 466 kts 204°
2026-05-07 08:53 34.74226 -9.84384 36970 ft 466 kts 204°
2026-05-07 08:53 34.68079 -9.86715 36966 ft 466 kts 204°
2026-05-07 08:54 34.61893 -9.89055 36970 ft 465 kts 204°
2026-05-07 08:54 34.55703 -9.91395 36964 ft 465 kts 204°
2026-05-07 08:55 34.49555 -9.93715 36970 ft 465 kts 204°
2026-05-07 08:55 34.43358 -9.96048 36966 ft 465 kts 204°
2026-05-07 08:56 34.37196 -9.98364 36965 ft 464 kts 204°
2026-05-07 08:56 34.31044 -10.00676 36967 ft 464 kts 204°
2026-05-07 08:57 34.24861 -10.02994 36973 ft 464 kts 204°
2026-05-07 08:57 34.18711 -10.05296 36963 ft 463 kts 204°
2026-05-07 08:58 34.12552 -10.07598 36970 ft 462 kts 204°
2026-05-07 08:58 34.06419 -10.09886 36971 ft 463 kts 204°
2026-05-07 08:59 34.00280 -10.12174 36977 ft 463 kts 204°
2026-05-07 08:59 33.94110 -10.14471 36966 ft 463 kts 204°
2026-05-07 09:00 33.87939 -10.16765 36969 ft 463 kts 204°
2026-05-07 09:00 33.81794 -10.19043 36973 ft 462 kts 204°
2026-05-07 09:01 33.75645 -10.21322 36973 ft 463 kts 204°
2026-05-07 09:01 33.69489 -10.23598 36968 ft 463 kts 204°
2026-05-07 09:02 33.63322 -10.25876 36974 ft 464 kts 204°
2026-05-07 09:02 33.57182 -10.28140 36983 ft 463 kts 204°
2026-05-07 09:03 33.51043 -10.30398 36990 ft 462 kts 204°
2026-05-07 09:03 33.44898 -10.32658 36990 ft 463 kts 204°
2026-05-07 09:04 33.38714 -10.34928 36994 ft 461 kts 204°
2026-05-07 09:04 33.32585 -10.37173 36990 ft 462 kts 204°
2026-05-07 09:05 33.26438 -10.39422 36991 ft 463 kts 204°
2026-05-07 09:05 33.20282 -10.41671 36994 ft 462 kts 204°
2026-05-07 09:06 33.14151 -10.43909 36984 ft 462 kts 203°
2026-05-07 09:06 33.07977 -10.46160 36984 ft 464 kts 204°
2026-05-07 09:07 33.01828 -10.48397 36980 ft 464 kts 203°
2026-05-07 09:07 32.95655 -10.50639 36978 ft 464 kts 203°
2026-05-07 09:08 32.89465 -10.52884 36981 ft 463 kts 203°
2026-05-07 09:08 32.83315 -10.55112 36982 ft 463 kts 203°
2026-05-07 09:09 32.77157 -10.57339 36982 ft 463 kts 203°
2026-05-07 09:09 32.70994 -10.59567 36983 ft 464 kts 203°
2026-05-07 09:10 32.64822 -10.61792 36986 ft 464 kts 203°
2026-05-07 09:10 32.58614 -10.64029 36991 ft 464 kts 203°
2026-05-07 09:11 32.52451 -10.66245 36989 ft 464 kts 202°
2026-05-07 09:11 32.45284 -10.68818 36982 ft 463 kts 202°
2026-05-07 09:12 32.40116 -10.70671 36983 ft 463 kts 202°
2026-05-07 09:12 32.33947 -10.72880 36986 ft 463 kts 202°
2026-05-07 09:13 32.27787 -10.75083 36984 ft 464 kts 202°
2026-05-07 09:13 32.21628 -10.77283 36986 ft 464 kts 202°
2026-05-07 09:14 32.15462 -10.79481 36984 ft 463 kts 202°
2026-05-07 09:14 32.09273 -10.81683 36985 ft 463 kts 202°
2026-05-07 09:15 32.03146 -10.83863 36985 ft 462 kts 202°
2026-05-07 09:15 31.96962 -10.86059 36987 ft 463 kts 202°
2026-05-07 09:16 31.90803 -10.88243 36984 ft 463 kts 202°
2026-05-07 09:16 31.84624 -10.90430 36983 ft 463 kts 202°
2026-05-07 09:17 31.78451 -10.92612 36983 ft 462 kts 202°
2026-05-07 09:17 31.71259 -10.95150 36980 ft 463 kts 202°
2026-05-07 09:18 31.66145 -10.97017 36979 ft 461 kts 204°
2026-05-07 09:18 31.60108 -10.99570 36983 ft 460 kts 205°
2026-05-07 09:19 31.54089 -11.02122 36979 ft 461 kts 205°
2026-05-07 09:19 31.48082 -11.04666 36978 ft 460 kts 205°
2026-05-07 09:20 31.42047 -11.07219 36969 ft 460 kts 205°
2026-05-07 09:20 31.36031 -11.09759 36970 ft 460 kts 205°
2026-05-07 09:21 31.30010 -11.12298 36973 ft 461 kts 205°
2026-05-07 09:21 31.23963 -11.14843 36976 ft 461 kts 205°
2026-05-07 09:22 31.17956 -11.17369 36976 ft 461 kts 205°
2026-05-07 09:22 31.11922 -11.19902 36979 ft 461 kts 205°
2026-05-07 09:23 31.05865 -11.22440 36973 ft 460 kts 205°
2026-05-07 09:23 30.99870 -11.24950 36978 ft 460 kts 205°
2026-05-07 09:24 30.93797 -11.27489 36976 ft 461 kts 205°
2026-05-07 09:24 30.87763 -11.30008 36986 ft 461 kts 205°
2026-05-07 09:25 30.81746 -11.32518 36988 ft 461 kts 205°
2026-05-07 09:25 30.75711 -11.35032 36988 ft 461 kts 205°
2026-05-07 09:26 30.69680 -11.37538 36985 ft 461 kts 205°
2026-05-07 09:26 30.62626 -11.40467 36986 ft 461 kts 205°
2026-05-07 09:27 30.57565 -11.42568 36982 ft 461 kts 205°
2026-05-07 09:28 30.48544 -11.46303 36985 ft 461 kts 205°
2026-05-07 09:28 30.42486 -11.48808 36984 ft 461 kts 205°
2026-05-07 09:29 30.36422 -11.51312 36984 ft 461 kts 205°
2026-05-07 09:29 30.30404 -11.53792 36982 ft 462 kts 205°
2026-05-07 09:30 30.24362 -11.56279 36981 ft 462 kts 205°
2026-05-07 09:30 30.18303 -11.58771 36984 ft 462 kts 205°
2026-05-07 09:31 30.12235 -11.61263 36980 ft 463 kts 205°
2026-05-07 09:31 30.06154 -11.63757 36983 ft 462 kts 205°
2026-05-07 09:32 29.99087 -11.66652 36984 ft 463 kts 204°
2026-05-07 09:32 29.94008 -11.68729 36982 ft 463 kts 204°
2026-05-07 09:33 29.87967 -11.71196 36979 ft 463 kts 204°
2026-05-07 09:33 29.81901 -11.73673 36979 ft 463 kts 204°
2026-05-07 09:34 29.75800 -11.76158 36979 ft 463 kts 204°
2026-05-07 09:34 29.69745 -11.78623 36981 ft 463 kts 204°
2026-05-07 09:35 29.63671 -11.81093 36982 ft 463 kts 204°
2026-05-07 09:35 29.57581 -11.83565 36985 ft 464 kts 204°
2026-05-07 09:36 29.51518 -11.86022 36985 ft 464 kts 204°
2026-05-07 09:36 29.45409 -11.88495 36985 ft 464 kts 204°
2026-05-07 09:37 29.39352 -11.90944 36989 ft 464 kts 204°
2026-05-07 09:37 29.33235 -11.93415 36989 ft 464 kts 204°
2026-05-07 09:38 29.27158 -11.95866 36991 ft 463 kts 204°
2026-05-07 09:38 29.21104 -11.98305 36984 ft 464 kts 204°
2026-05-07 09:39 29.15020 -12.00753 36976 ft 464 kts 204°
2026-05-07 09:39 29.08933 -12.03199 36972 ft 464 kts 204°
2026-05-07 09:40 29.02811 -12.05657 36971 ft 464 kts 204°
2026-05-07 09:40 28.96728 -12.08095 36970 ft 464 kts 204°
2026-05-07 09:41 28.90651 -12.10526 36969 ft 464 kts 204°
2026-05-07 09:41 28.84536 -12.12971 36970 ft 464 kts 204°
2026-05-07 09:42 28.78455 -12.15399 36969 ft 463 kts 204°
2026-05-07 09:42 28.72361 -12.17830 36975 ft 463 kts 204°
2026-05-07 09:43 28.66308 -12.20241 36980 ft 463 kts 204°
2026-05-07 09:43 28.60194 -12.22673 36973 ft 463 kts 204°
2026-05-07 09:44 28.54117 -12.25089 36974 ft 463 kts 204°
2026-05-07 09:44 28.48056 -12.27494 36972 ft 463 kts 204°
2026-05-07 09:45 28.41982 -12.29901 36975 ft 463 kts 204°
2026-05-07 09:45 28.35893 -12.32312 36975 ft 463 kts 204°
2026-05-07 09:46 28.29836 -12.34708 36971 ft 462 kts 204°
2026-05-07 09:46 28.23755 -12.37109 36976 ft 462 kts 204°
2026-05-07 09:47 28.17657 -12.39514 36976 ft 462 kts 204°
2026-05-07 09:47 28.11594 -12.41904 36976 ft 462 kts 204°
2026-05-07 09:48 28.05497 -12.44304 36980 ft 463 kts 204°
2026-05-07 09:48 27.99446 -12.46681 36977 ft 462 kts 204°
2026-05-07 09:49 27.93344 -12.49076 36978 ft 462 kts 204°
2026-05-07 09:49 27.87277 -12.51454 36979 ft 462 kts 204°
2026-05-07 09:50 27.81192 -12.53838 36981 ft 462 kts 204°
2026-05-07 09:50 27.75150 -12.56239 36977 ft 460 kts 206°
2026-05-07 09:51 27.69422 -12.59315 36983 ft 455 kts 215°
2026-05-07 09:51 27.64198 -12.63260 36983 ft 450 kts 223°
2026-05-07 09:52 27.59575 -12.67967 36984 ft 445 kts 230°
2026-05-07 09:52 27.55325 -12.73033 36983 ft 445 kts 231°
2026-05-07 09:53 27.51082 -12.78106 36985 ft 445 kts 231°
2026-05-07 09:53 27.46846 -12.83161 36986 ft 445 kts 231°
2026-05-07 09:54 27.42596 -12.88221 36987 ft 444 kts 231°
2026-05-07 09:54 27.38351 -12.93271 36991 ft 444 kts 231°
2026-05-07 09:55 27.34108 -12.98311 36990 ft 444 kts 231°
2026-05-07 09:55 27.29856 -13.03357 36990 ft 445 kts 231°
2026-05-07 09:56 27.25625 -13.08370 36996 ft 446 kts 231°
2026-05-07 09:56 27.21337 -13.13436 37001 ft 446 kts 230°
2026-05-07 09:57 27.16642 -13.18045 36998 ft 452 kts 221°
2026-05-07 09:57 27.11293 -13.21793 37003 ft 458 kts 212°
2026-05-07 09:58 27.05363 -13.24574 36996 ft 465 kts 202°
2026-05-07 09:58 26.99154 -13.26588 36999 ft 466 kts 200°
2026-05-07 09:59 26.92909 -13.28542 36996 ft 466 kts 200°
2026-05-07 09:59 26.86637 -13.30510 36989 ft 465 kts 201°
2026-05-07 10:00 26.80423 -13.32464 36997 ft 465 kts 201°
2026-05-07 10:00 26.74177 -13.34428 36986 ft 465 kts 201°
2026-05-07 10:01 26.67958 -13.36382 36984 ft 465 kts 201°
2026-05-07 10:01 26.61743 -13.38332 36981 ft 465 kts 201°
2026-05-07 10:02 26.55528 -13.40280 36980 ft 464 kts 201°
2026-05-07 10:02 26.49257 -13.42243 36977 ft 465 kts 201°
2026-05-07 10:03 26.43053 -13.44183 36981 ft 464 kts 201°
2026-05-07 10:03 26.36828 -13.46127 36978 ft 464 kts 201°
2026-05-07 10:04 26.30595 -13.48072 36977 ft 464 kts 201°
2026-05-07 10:04 26.24402 -13.50002 36977 ft 463 kts 201°
2026-05-07 10:05 26.18198 -13.51934 36981 ft 463 kts 201°
2026-05-07 10:05 26.11985 -13.53866 36975 ft 462 kts 201°
2026-05-07 10:06 26.05784 -13.55793 36977 ft 463 kts 201°
2026-05-07 10:06 25.99563 -13.57724 36983 ft 463 kts 201°
2026-05-07 10:07 25.93376 -13.59642 36973 ft 462 kts 201°
2026-05-07 10:07 25.87179 -13.61560 36976 ft 463 kts 201°
2026-05-07 10:08 25.80979 -13.63479 36977 ft 462 kts 201°
2026-05-07 10:08 25.74768 -13.65396 36972 ft 463 kts 201°
2026-05-07 10:09 25.68558 -13.67314 36979 ft 463 kts 200°
2026-05-07 10:09 25.62345 -13.69228 36975 ft 463 kts 200°
2026-05-07 10:10 25.56169 -13.71131 36976 ft 462 kts 201°
2026-05-07 10:10 25.49958 -13.73041 36970 ft 462 kts 201°
2026-05-07 10:11 25.43755 -13.74947 36974 ft 462 kts 200°
2026-05-07 10:11 25.37553 -13.76852 36979 ft 462 kts 200°
2026-05-07 10:12 25.31364 -13.78749 36975 ft 462 kts 201°
2026-05-07 10:12 25.25159 -13.80649 36979 ft 462 kts 200°
2026-05-07 10:13 25.18942 -13.82551 36979 ft 462 kts 201°
2026-05-07 10:13 25.12758 -13.84442 36977 ft 462 kts 200°
2026-05-07 10:14 25.06556 -13.86333 36977 ft 462 kts 200°
2026-05-07 10:14 25.00346 -13.88238 36979 ft 461 kts 201°
2026-05-07 10:15 24.94204 -13.90174 36981 ft 462 kts 201°
2026-05-07 10:15 24.87989 -13.92135 36976 ft 461 kts 201°
2026-05-07 10:16 24.81854 -13.94065 36979 ft 461 kts 201°
2026-05-07 10:16 24.75676 -13.96004 36977 ft 460 kts 201°
2026-05-07 10:17 24.69496 -13.97943 36980 ft 460 kts 201°
2026-05-07 10:17 24.63339 -13.99869 36979 ft 460 kts 201°
2026-05-07 10:18 24.57155 -14.01803 36978 ft 460 kts 201°
2026-05-07 10:18 24.51022 -14.03720 36978 ft 461 kts 201°
2026-05-07 10:19 24.44820 -14.05655 36974 ft 460 kts 201°
2026-05-07 10:19 24.38679 -14.07570 36975 ft 459 kts 201°
2026-05-07 10:20 24.32562 -14.09474 36973 ft 458 kts 201°
2026-05-07 10:20 24.26387 -14.11397 36971 ft 459 kts 201°
2026-05-07 10:21 24.20238 -14.13310 36965 ft 459 kts 201°
2026-05-07 10:21 24.14109 -14.15212 36961 ft 458 kts 201°
2026-05-07 10:22 24.07991 -14.17109 36960 ft 456 kts 201°
2026-05-07 10:22 24.01884 -14.19003 36967 ft 456 kts 201°
2026-05-07 10:23 23.95741 -14.20905 36968 ft 457 kts 201°
2026-05-07 10:23 23.89653 -14.22788 36966 ft 456 kts 201°
2026-05-07 10:24 23.83544 -14.24677 36967 ft 456 kts 201°
2026-05-07 10:24 23.77397 -14.26575 36962 ft 457 kts 201°
2026-05-07 10:25 23.71291 -14.28456 36962 ft 456 kts 201°
2026-05-07 10:25 23.65173 -14.30342 36960 ft 456 kts 201°
2026-05-07 10:26 23.59089 -14.32215 36960 ft 457 kts 201°
2026-05-07 10:26 23.52933 -14.34109 36959 ft 457 kts 201°
2026-05-07 10:27 23.46832 -14.35983 36955 ft 456 kts 201°
2026-05-07 10:27 23.40702 -14.37864 36960 ft 456 kts 201°
2026-05-07 10:28 23.34618 -14.39730 36961 ft 456 kts 201°
2026-05-07 10:28 23.28497 -14.41605 36958 ft 456 kts 201°
2026-05-07 10:29 23.22388 -14.43474 36956 ft 455 kts 201°
2026-05-07 10:29 23.16267 -14.45345 36955 ft 455 kts 201°
2026-05-07 10:30 23.07129 -14.48137 36963 ft 455 kts 201°
2026-05-07 10:30 23.01041 -14.49994 36962 ft 454 kts 201°
2026-05-07 10:31 22.94952 -14.51848 36961 ft 453 kts 201°
2026-05-07 10:31 22.88855 -14.53705 36963 ft 454 kts 201°
2026-05-07 10:32 22.82785 -14.55552 36963 ft 454 kts 202°
2026-05-07 10:32 22.76699 -14.57401 36966 ft 454 kts 201°
2026-05-07 10:33 22.70622 -14.59247 36966 ft 454 kts 201°
2026-05-07 10:33 22.64549 -14.61089 36969 ft 453 kts 201°
2026-05-07 10:34 22.58470 -14.62931 36964 ft 453 kts 202°
2026-05-07 10:34 22.52391 -14.64771 36960 ft 452 kts 202°
2026-05-07 10:35 22.46333 -14.66605 36960 ft 453 kts 201°
2026-05-07 10:35 22.40234 -14.68448 36957 ft 452 kts 201°
2026-05-07 10:36 22.34162 -14.70280 36960 ft 452 kts 201°
2026-05-07 10:36 22.28126 -14.72102 36956 ft 452 kts 201°
2026-05-07 10:37 22.22054 -14.73932 36962 ft 451 kts 201°
2026-05-07 10:37 22.16018 -14.75750 36960 ft 451 kts 201°
2026-05-07 10:38 22.09965 -14.77571 36961 ft 451 kts 201°
2026-05-07 10:38 22.03938 -14.79383 36959 ft 451 kts 201°
2026-05-07 10:39 21.97851 -14.81211 36955 ft 451 kts 201°
2026-05-07 10:39 21.91839 -14.83015 36958 ft 450 kts 201°
2026-05-07 10:40 21.85773 -14.84831 36951 ft 449 kts 201°
2026-05-07 10:40 21.79782 -14.86622 36952 ft 448 kts 201°
2026-05-07 10:41 21.73784 -14.88417 36952 ft 447 kts 201°
2026-05-07 10:41 21.67779 -14.90212 36941 ft 447 kts 201°
2026-05-07 10:42 21.61788 -14.92002 36948 ft 447 kts 201°
2026-05-07 10:42 21.55804 -14.93788 36948 ft 446 kts 201°
2026-05-07 10:43 21.49808 -14.95577 36944 ft 445 kts 201°
2026-05-07 10:43 21.43864 -14.97346 36955 ft 443 kts 201°
2026-05-07 10:44 21.37893 -14.99124 36941 ft 443 kts 201°
2026-05-07 10:44 21.31977 -15.00894 36943 ft 441 kts 202°
2026-05-07 10:45 21.26112 -15.02749 36952 ft 440 kts 202°
2026-05-07 10:45 21.20208 -15.04625 36941 ft 440 kts 202°
2026-05-07 10:46 21.14354 -15.06474 36945 ft 439 kts 202°
2026-05-07 10:46 21.08491 -15.08325 36949 ft 440 kts 202°
2026-05-07 10:47 21.02593 -15.10185 36941 ft 439 kts 202°
2026-05-07 10:47 20.96750 -15.12024 36945 ft 437 kts 202°
2026-05-07 10:48 20.90913 -15.13861 36949 ft 437 kts 202°
2026-05-07 10:48 20.85055 -15.15706 36946 ft 437 kts 202°
2026-05-07 10:49 20.79232 -15.17533 36938 ft 436 kts 202°
2026-05-07 10:49 20.73400 -15.19365 36940 ft 435 kts 202°
2026-05-07 10:50 20.67555 -15.21199 36942 ft 436 kts 202°
2026-05-07 10:50 20.61718 -15.23028 36929 ft 436 kts 203°
2026-05-07 10:51 20.55921 -15.24843 36940 ft 435 kts 203°
2026-05-07 10:51 20.50116 -15.26663 36945 ft 435 kts 203°
2026-05-07 10:52 20.44292 -15.28484 36930 ft 435 kts 203°
2026-05-07 10:52 20.38490 -15.30296 36928 ft 434 kts 203°
2026-05-07 10:53 20.32662 -15.32115 36926 ft 433 kts 203°
2026-05-07 10:53 20.26906 -15.33910 36933 ft 432 kts 203°
2026-05-07 10:54 20.21145 -15.35706 36925 ft 432 kts 204°
2026-05-07 10:54 20.15349 -15.37511 36909 ft 431 kts 204°
2026-05-07 10:55 20.09588 -15.39307 36905 ft 430 kts 204°
2026-05-07 10:55 20.03861 -15.41091 36900 ft 430 kts 204°
2026-05-07 10:56 19.98107 -15.42883 36913 ft 429 kts 204°
2026-05-07 10:56 19.92387 -15.44663 36906 ft 429 kts 204°
2026-05-07 10:57 19.86621 -15.46452 36913 ft 428 kts 204°
2026-05-07 10:57 19.80909 -15.48222 36904 ft 428 kts 204°
2026-05-07 10:58 19.75186 -15.49996 36920 ft 427 kts 204°
2026-05-07 10:58 19.69486 -15.51763 36912 ft 426 kts 204°
2026-05-07 10:59 19.63792 -15.53526 36917 ft 426 kts 204°
2026-05-07 10:59 19.58085 -15.55288 36912 ft 425 kts 204°
2026-05-07 11:00 19.52412 -15.57042 36913 ft 425 kts 204°
2026-05-07 11:00 19.46749 -15.58790 36919 ft 424 kts 204°
2026-05-07 11:01 19.41069 -15.60546 36914 ft 423 kts 204°
2026-05-07 11:01 19.38254 -15.61413 36561 ft 423 kts 204°
2026-05-07 11:01 19.35408 -15.62295 35483 ft 432 kts 204°
2026-05-07 11:02 19.32485 -15.63206 34260 ft 442 kts 204°
2026-05-07 11:02 19.29534 -15.64119 33138 ft 450 kts 203°
2026-05-07 11:02 19.26503 -15.65055 32130 ft 458 kts 202°
2026-05-07 11:02 19.23398 -15.66017 31152 ft 465 kts 202°
2026-05-07 11:03 19.20281 -15.66978 30361 ft 468 kts 201°
2026-05-07 11:03 19.17167 -15.67935 29582 ft 471 kts 200°
2026-05-07 11:03 19.14039 -15.68895 29021 ft 468 kts 200°
2026-05-07 11:03 19.10902 -15.69852 28485 ft 464 kts 200°
2026-05-07 11:04 19.07841 -15.70785 28029 ft 459 kts 199°
2026-05-07 11:04 19.04764 -15.71725 27567 ft 454 kts 200°
2026-05-07 11:04 19.01732 -15.72653 27133 ft 449 kts 199°
2026-05-07 11:04 18.98765 -15.73561 26708 ft 444 kts 200°
2026-05-07 11:05 18.95807 -15.74468 26282 ft 440 kts 199°
2026-05-07 11:05 18.92869 -15.75367 25863 ft 436 kts 199°
2026-05-07 11:05 18.89981 -15.76252 25446 ft 432 kts 199°
2026-05-07 11:05 18.87104 -15.77134 25022 ft 428 kts 199°
2026-05-07 11:06 18.84227 -15.78016 24595 ft 425 kts 199°
2026-05-07 11:06 18.81396 -15.78882 24179 ft 422 kts 199°
2026-05-07 11:06 18.78581 -15.79744 23762 ft 419 kts 199°
2026-05-07 11:06 18.75817 -15.80589 23382 ft 415 kts 199°
2026-05-07 11:07 18.73029 -15.81444 22957 ft 413 kts 199°
2026-05-07 11:07 18.70301 -15.82277 22551 ft 411 kts 199°
2026-05-07 11:07 18.67526 -15.83125 22141 ft 408 kts 199°
2026-05-07 11:07 18.64823 -15.83949 21721 ft 406 kts 199°
2026-05-07 11:08 18.62096 -15.84781 21310 ft 404 kts 199°
2026-05-07 11:08 18.59408 -15.85604 20856 ft 403 kts 198°
2026-05-07 11:08 18.56727 -15.86421 20412 ft 402 kts 199°
2026-05-07 11:08 18.54036 -15.87242 19973 ft 400 kts 198°
2026-05-07 11:09 18.51370 -15.88055 19526 ft 399 kts 198°
2026-05-07 11:09 18.48685 -15.88874 19096 ft 396 kts 198°
2026-05-07 11:09 18.46056 -15.89675 18679 ft 394 kts 198°
2026-05-07 11:09 18.43417 -15.90480 18225 ft 392 kts 198°
2026-05-07 11:10 18.40791 -15.91279 17762 ft 391 kts 198°
2026-05-07 11:10 18.38193 -15.92070 17312 ft 389 kts 198°
2026-05-07 11:10 18.35599 -15.92857 16877 ft 387 kts 198°
2026-05-07 11:10 18.33011 -15.93640 16481 ft 383 kts 199°
2026-05-07 11:11 18.30446 -15.94388 16079 ft 380 kts 195°
2026-05-07 11:11 18.27803 -15.94467 15626 ft 385 kts 173°
2026-05-07 11:11 18.25263 -15.93562 15393 ft 383 kts 155°
2026-05-07 11:11 18.23012 -15.92162 15298 ft 371 kts 152°
2026-05-07 11:12 18.20834 -15.90799 15221 ft 359 kts 153°
2026-05-07 11:12 18.18692 -15.89471 15140 ft 347 kts 153°
2026-05-07 11:12 18.15984 -15.87807 15085 ft 331 kts 153°
2026-05-07 11:12 18.14681 -15.87007 15058 ft 323 kts 154°
2026-05-07 11:13 18.12761 -15.85832 15046 ft 311 kts 154°
2026-05-07 11:13 18.10910 -15.84703 15006 ft 303 kts 154°
2026-05-07 11:13 18.09113 -15.83607 14933 ft 294 kts 154°
2026-05-07 11:13 18.07390 -15.82546 14872 ft 285 kts 150°
2026-05-07 11:14 18.05952 -15.81078 14656 ft 290 kts 128°
2026-05-07 11:14 18.04933 -15.79270 14490 ft 288 kts 121°
2026-05-07 11:14 18.03999 -15.77436 14310 ft 284 kts 122°
2026-05-07 11:14 18.03038 -15.75613 14124 ft 280 kts 124°
2026-05-07 11:15 18.02076 -15.73874 13900 ft 275 kts 125°
2026-05-07 11:15 18.01097 -15.72153 13519 ft 274 kts 126°
2026-05-07 11:15 18.00110 -15.70437 13083 ft 271 kts 126°
2026-05-07 11:15 17.99117 -15.68822 12731 ft 260 kts 139°
2026-05-07 11:16 17.97727 -15.67753 12478 ft 238 kts 167°
2026-05-07 11:16 17.96149 -15.67468 12279 ft 226 kts 190°
2026-05-07 11:16 17.94669 -15.67855 12103 ft 216 kts 211°
2026-05-07 11:16 17.93481 -15.68779 11902 ft 211 kts 231°
2026-05-07 11:17 17.92727 -15.70071 11716 ft 208 kts 251°
2026-05-07 11:17 17.92477 -15.71566 11562 ft 209 kts 270°
2026-05-07 11:17 17.92771 -15.73053 11388 ft 213 kts 290°
2026-05-07 11:17 17.93613 -15.74367 11230 ft 220 kts 311°
2026-05-07 11:18 17.94873 -15.75305 11020 ft 225 kts 324°
2026-05-07 11:18 17.96244 -15.76116 10797 ft 225 kts 325°
2026-05-07 11:18 17.97620 -15.76906 10596 ft 224 kts 326°
2026-05-07 11:18 17.98985 -15.77687 10402 ft 222 kts 326°
2026-05-07 11:19 18.00323 -15.78454 10210 ft 220 kts 325°
2026-05-07 11:19 18.01666 -15.79229 10033 ft 218 kts 325°
2026-05-07 11:19 18.03005 -15.80004 9814 ft 218 kts 325°
2026-05-07 11:19 18.04324 -15.80766 9604 ft 217 kts 326°
2026-05-07 11:20 18.05642 -15.81525 9401 ft 215 kts 325°
2026-05-07 11:20 18.06962 -15.82288 9202 ft 215 kts 325°
2026-05-07 11:20 18.08280 -15.83027 9001 ft 216 kts 333°
2026-05-07 11:20 18.09781 -15.83329 8789 ft 224 kts 355°
2026-05-07 11:21 18.11292 -15.83475 8605 ft 212 kts 332°
2026-05-07 11:21 18.12453 -15.84334 8398 ft 198 kts 309°
2026-05-07 11:21 18.13353 -15.85375 8167 ft 191 kts 306°
2026-05-07 11:21 18.14257 -15.86387 7935 ft 188 kts 313°
2026-05-07 11:22 18.15273 -15.87246 7718 ft 185 kts 319°
2026-05-07 11:22 18.16338 -15.87978 7516 ft 182 kts 322°
2026-05-07 11:22 18.17421 -15.88658 7303 ft 177 kts 324°
2026-05-07 11:22 18.18473 -15.89304 7046 ft 172 kts 323°
2026-05-07 11:23 18.19537 -15.89955 6350 ft 191 kts 325°
2026-05-07 11:23 18.20749 -15.90689 5481 ft 213 kts 326°
2026-05-07 11:23 18.22062 -15.91480 4579 ft 229 kts 327°
2026-05-07 11:23 18.23470 -15.92321 3680 ft 238 kts 329°
2026-05-07 11:24 18.24927 -15.93180 2680 ft 247 kts 331°
2026-05-07 11:24 18.26410 -15.94119 1645 ft 256 kts 327°
2026-05-07 11:24 18.27871 -15.95178 589 ft 260 kts 329°
2026-05-07 11:24 18.29423 -15.96030 22 ft 241 kts 335°
2026-05-07 11:25 18.30756 -15.96763 18 ft 171 kts 327°
2026-05-07 11:25 18.31420 -15.97258 18 ft 58 kts 335°
2026-05-07 11:25 18.31580 -15.97348 18 ft 8 kts 343°
2026-05-07 11:25 18.31589 -15.97348 18 ft 0 kts
2026-05-07 11:26 18.31594 -15.97343 18 ft 1 kts 52°
2026-05-07 11:26 18.31593 -15.97333 18 ft 2 kts 109°
2026-05-07 11:26 18.31577 -15.97317 18 ft 4 kts 144°
2026-05-07 11:26 18.31543 -15.97294 18 ft 7 kts 149°
2026-05-07 11:27 18.31494 -15.97263 18 ft 9 kts 149°
2026-05-07 11:27 18.31432 -15.97226 18 ft 11 kts 151°
2026-05-07 11:27 18.31360 -15.97184 18 ft 12 kts 151°
2026-05-07 11:27 18.31280 -15.97138 18 ft 13 kts 150°
2026-05-07 11:28 18.31192 -15.97086 18 ft 14 kts 150°
2026-05-07 11:28 18.31098 -15.97030 18 ft 15 kts 150°
2026-05-07 11:28 18.31027 -15.96985 18 ft 9 kts 136°
2026-05-07 11:28 18.31014 -15.96925 18 ft 8 kts 73°
2026-05-07 11:29 18.31040 -15.96863 18 ft 10 kts 64°
2026-05-07 11:29 18.31043 -15.96805 18 ft 7 kts 110°
2026-05-07 11:29 18.31011 -15.96772 18 ft 7 kts 144°
2026-05-07 11:29 18.30961 -15.96739 18 ft 9 kts 149°
2026-05-07 11:30 18.30874 -15.96685 18 ft 11 kts 141°
2026-05-07 11:30 18.30849 -15.96640 18 ft 10 kts 96°
2026-05-07 11:30 18.30855 -15.96575 18 ft 5 kts 103°
2026-05-07 11:30 18.30834 -15.96533 18 ft 6 kts 108°
2026-05-07 11:31 18.30827 -15.96482 18 ft 7 kts 89°
2026-05-07 11:31 18.30838 -15.96440 18 ft 2 kts 68°
2026-05-07 11:31 18.30843 -15.96429 18 ft 0 kts 60°
2026-05-07 11:31 18.30846 -15.96425 18 ft 0 kts 62°